Powrót do katalogu

SL-16 DEB

AktywnyLEO
NORAD 39304·DEBRIS·🇷🇺 Russia

Wystrzelony Dec 25, 1992 z Baikonur Cosmodrome

Loading…

Następne Przeloty (najbliższe 24 godziny)

TLE

Starzejące sięSource: Space-Track

Epoka: Sep 11, 2026, 10:33 UTC

1 39304U 92093JV  26254.44000205  .00000210  00000-0  15755-3 0  9995
2 39304  71.2048 176.3608 0089469 220.4354 139.0093 14.03371172673112

Śledź SL-16 DEB w czasie rzeczywistym z AllMySat

Download on the App Store